Location: Unnamed
(51.5169°N, 0.1311°W)
Time: 19:36:05
(UTC+01:00)

Tiros 1 - Pass Details

Date: 13 August 2024
Orbit: 623 x 655 km, 48.4° (Epoch: 16 September)

Event Time Altitude Azimuth Distance (km) Brightness Sun altitude
Rises 10:41:50 0° 279° (W) 2,981 10.2 43.1°
Reaches altitude 10° 10:44:30 10° 266° (W) 2,064 9.5 43.4°
Maximum altitude 10:48:23 25° 211° (SSW) 1,306 9.1 43.9°
Drops below altitude 10° 10:52:14 10° 157° (SSE) 2,045 10.6 44.4°
Sets 10:54:52 0° 144° (SE) 2,946 11.3 44.7°
